Theta_e
315 315 315 315 315 315 315 314 313 313 313 313 314 313 313 313 314 314 315 316 320 325 328 330 331 332 333 333 334 334 334 334 334 333 332 331 329 328 328 327 327 327 326
316 316 316 316 315 315 315 314 313 312 312 312 312 312 312 312 312 313 313 314 319 321 324 327 329 331 332 332 332 333 333 333 334 334 333 332 331 331 330 329 328 328 328
316 316 315 315 315 315 314 313 312 312 311 311 310 311 312 312 312 312 312 312 313 316 319 323 325 327 328 329 330 331 331 331 331 333 332 331 330 330 330 330 330 330 329
318 316 315 315 315 314 314 313 311 311 310 310 310 312 312 312 312 312 312 311 311 312 314 318 320 322 324 326 328 328 328 327 326 329 330 328 329 328 328 328 328 328 330
321 319 316 315 315 314 314 316 314 310 313 314 312 312 312 311 311 311 310 310 310 310 310 313 315 315 318 322 323 324 324 325 324 324 325 326 326 325 325 325 326 327 327
324 322 320 318 316 316 317 317 315 316 315 315 313 312 311 311 309 307 309 309 309 309 309 308 308 309 314 318 320 319 320 322 322 321 320 320 320 321 322 322 323 324 325
325 324 323 323 321 319 319 318 316 315 311 314 309 312 310 308 307 308 307 307 307 308 307 307 307 306 307 314 316 317 318 319 318 318 318 318 318 318 319 318 319 319 320
327 327 326 324 323 322 321 319 317 316 314 314 313 310 304 304 306 308 306 306 305 304 305 305 304 304 305 305 307 314 316 317 318 317 316 315 315 315 315 316 316 318 318
327 326 326 325 324 323 322 321 319 316 314 314 314 308 301 299 305 304 303 303 301 300 300 301 301 302 302 302 305 306 310 312 312 312 312 312 312 311 312 313 314 315 314
327 327 326 325 324 322 321 319 318 317 315 310 310 308 308 308 300 296 299 300 299 299 299 300 300 301 301 302 303 304 305 305 305 305 306 306 308 309 309 311 312 312 312
323 323 323 321 318 316 314 314 311 308 306 309 307 302 300 299 297 297 292 291 292 293 295 296 297 297 299 299 298 298 300 299 299 300 301 303 304 306 308 309 310 311 311
311 312 310 309 308 307 306 303 301 300 300 298 297 297 296 295 295 291 289 287 287 288 290 291 293 295 295 295 295 296 295 297 298 298 299 299 300 302 304 305 306 307 308
306 305 305 303 301 300 298 297 295 294 293 292 292 291 291 291 292 291 290 287 285 285 288 288 291 292 292 291 291 292 293 294 295 295 296 297 298 299 300 302 303 303 304
303 301 299 297 295 294 294 293 291 290 289 288 287 288 288 289 289 289 288 287 282 282 282 283 287 287 289 290 290 292 289 292 293 294 295 295 296 297 298 300 301 301 302
298 296 295 291 291 291 291 289 288 287 287 286 286 286 286 287 287 287 287 286 285 280 280 282 283 286 288 288 288 288 288 291 292 293 294 294 296 297 297 298 299 299 300
294 293 289 289 288 289 289 287 286 285 285 285 285 284 284 285 284 285 285 285 285 285 280 283 284 286 286 287 288 287 287 290 290 291 292 293 293 294 295 295 296 297 298
291 289 288 287 286 286 286 285 284 284 283 283 283 283 283 283 282 282 283 283 283 283 281 282 284 285 284 285 286 287 287 286 287 289 291 292 292 292 293 294 295 296 297
288 287 286 285 284 284 284 284 283 283 282 282 282 282 281 283 281 281 283 283 282 282 282 280 282 283 284 286 286 285 285 286 285 288 291 290 290 292 295 295 295 294 295
285 285 284 283 283 283 283 283 283 283 283 283 282 282 281 281 280 280 280 280 281 283 284 282 282 284 284 285 284 283 283 283 284 287 287 287 289 292 293 293 293 292 292
284 283 283 282 282 282 283 283 283 283 282 282 283 282 282 281 280 279 280 280 283 283 283 283 282 282 283 284 284 281 280 281 282 283 283 284 287 290 291 291 291 290 290
282 282 281 281 281 282 284 283 283 282 282 281 282 282 282 281 284 284 283 283 283 283 283 281 281 281 281 282 280 281 279 280 278 280 279 280 281 281 287 289 288 288 289
281 281 281 280 280 282 287 287 284 282 282 281 281 281 281 280 282 285 285 286 285 282 282 282 281 281 281 282 280 279 278 278 275 278 278 277 278 277 276 285 288 288 288
280 280 280 280 279 280 286 287 286 282 282 281 281 282 282 282 281 281 284 286 285 286 286 284 282 282 282 281 280 278 274 274 274 277 277 274 276 275 276 280 287 286 285
279 279 279 279 278 281 285 286 285 282 281 281 281 281 280 281 281 281 283 281 281 283 284 284 283 282 282 282 281 279 277 276 273 275 277 270 274 273 275 274 282 285 284
277 277 278 275 276 277 284 285 283 280 281 280 281 281 280 280 282 284 280 275 278 283 285 287 286 285 283 281 281 270 267 267 266 271 274 273 272 273 273 272 273 278 281
277 277 277 274 274 274 282 283 282 280 276 278 279 279 281 281 283 284 279 275 276 282 281 282 280 280 275 274 277 271 274 273 269 268 276 273 274 275 272 272 272 271 271
Wind_Speed
2 1 0 1 1 1 1 1 2 3 3 4 4 4 5 5 5 3 3 8 10 13 15 17 18 19 20 21 22 23 23 24 22 20 21 23 23 24 24 25 25 25 26
2 2 0 1 1 1 2 2 2 3 3 4 5 5 5 5 5 6 4 4 11 13 16 18 18 19 20 21 22 23 25 26 24 22 21 20 21 24 26 27 28 28 29
3 2 1 1 2 1 2 2 3 3 4 4 4 5 5 6 5 6 4 4 5 9 12 15 16 17 18 20 21 22 23 24 25 24 23 21 22 22 24 24 27 31 31
5 3 2 2 1 1 1 1 2 3 2 3 4 5 4 5 6 5 5 4 4 4 7 13 15 16 17 20 20 21 23 24 25 25 24 23 22 23 22 23 24 26 27
5 4 2 3 3 1 1 1 1 1 3 3 4 4 5 5 4 3 5 5 5 4 4 9 12 13 17 20 21 23 24 24 24 24 24 24 25 27 25 26 26 25 25
5 4 3 3 2 1 1 1 1 1 2 3 4 4 5 4 2 2 4 4 4 4 5 5 5 6 14 20 21 24 24 24 25 25 26 26 28 28 27 28 28 28 27
6 5 3 3 3 3 3 2 1 1 2 3 3 4 4 3 1 2 3 3 5 5 6 5 6 4 5 16 20 22 24 25 25 25 26 26 27 28 29 29 30 31 32
5 4 4 3 4 3 3 2 2 0 0 2 2 2 5 5 4 6 3 4 4 4 5 7 7 7 6 5 8 20 23 26 26 27 27 28 29 30 31 31 31 31 32
5 5 5 4 4 3 2 1 1 1 0 2 4 2 2 3 7 4 6 2 5 4 6 6 7 6 6 5 8 12 22 25 27 28 30 31 31 32 32 33 33 32 33
5 5 4 3 3 2 3 3 2 2 1 2 1 1 2 1 3 5 3 5 5 10 8 7 9 10 10 8 12 16 24 29 31 33 34 34 35 34 34 34 33 33 33
4 5 5 6 5 4 4 5 5 4 3 3 2 2 2 1 2 1 5 5 4 2 4 4 6 5 7 7 8 14 28 31 31 29 30 32 34 34 34 33 34 35 35
3 5 6 6 5 5 5 5 5 6 5 5 3 4 2 2 3 2 4 6 7 3 6 4 5 4 5 7 14 22 27 28 30 30 31 33 33 33 34 34 34 34 34
2 4 5 5 4 5 6 6 6 6 5 5 4 3 3 3 1 2 2 5 4 3 2 4 4 5 7 9 9 20 21 28 28 31 32 32 33 32 33 33 33 34 34
6 5 6 6 7 7 6 6 5 4 5 5 6 5 3 3 2 2 2 4 6 4 1 5 2 4 8 8 12 20 13 26 30 31 31 32 32 32 33 32 32 33 32
6 7 7 7 6 7 7 6 5 5 5 5 5 5 3 3 3 2 3 2 3 7 6 2 4 6 8 10 12 14 15 23 31 32 32 33 33 33 34 34 32 32 32
7 8 8 7 7 6 6 6 5 4 6 4 3 5 3 2 4 3 3 3 2 3 6 4 7 12 14 12 15 15 16 21 25 30 32 32 33 31 31 31 30 28 28
9 8 8 7 7 6 6 6 6 5 6 5 4 5 5 4 3 4 3 3 3 3 8 8 10 12 14 15 14 13 13 13 13 26 30 30 30 30 30 29 25 26 25
7 8 7 7 7 6 6 6 6 5 5 5 4 5 5 4 5 4 3 3 3 4 8 17 12 11 15 16 14 15 11 10 11 20 28 26 27 27 27 21 23 26 31
8 7 7 7 7 6 6 6 5 5 4 5 5 5 4 4 3 2 2 3 3 5 8 9 12 11 10 11 13 9 10 12 10 21 20 22 23 22 28 29 29 27 28
8 7 6 7 6 6 5 5 5 4 5 4 4 5 4 2 2 4 4 5 6 7 9 7 10 10 10 10 8 11 14 11 9 8 14 20 22 24 26 26 26 27 28
6 7 7 6 6 5 3 5 4 4 5 5 4 2 1 3 6 6 3 5 8 6 6 8 7 9 9 10 9 10 8 9 4 8 7 10 9 9 12 17 19 27 27
7 7 6 6 6 3 6 6 5 4 4 3 3 3 3 4 4 6 7 11 11 7 9 7 8 9 10 9 9 7 8 6 4 5 6 8 8 10 9 10 24 25 26
7 6 6 6 5 4 6 6 6 4 4 3 3 2 2 3 4 4 9 11 11 12 13 9 9 8 9 8 6 7 4 2 2 3 3 4 6 7 8 11 21 22 22
6 5 5 4 5 3 6 5 7 4 3 3 2 3 4 5 6 5 8 6 6 6 7 5 4 6 6 7 5 5 6 5 2 2 1 2 2 3 5 7 23 23 20
4 3 4 5 5 2 6 6 6 3 3 2 2 4 4 4 8 12 5 5 6 7 8 12 7 9 10 9 7 3 4 3 3 2 2 2 2 1 2 5 7 17 21
5 4 5 4 4 3 4 5 4 2 2 1 1 4 7 7 12 13 6 5 6 9 4 3 4 3 4 4 7 2 3 1 2 3 2 1 1 1 1 1 5 6 6
Wind_Direction
168 147 160 69 30 4 358 342 339 337 338 340 335 338 330 328 321 310 299 293 300 309 312 313 311 309 310 310 309 311 309 306 304 291 273 267 266 262 258 258 261 259 256
176 181 165 287 296 303 321 327 320 324 333 342 332 332 319 311 301 295 292 304 304 309 315 318 320 322 323 324 322 317 314 315 317 313 308 301 287 273 269 267 262 258 256
199 178 195 242 258 258 289 336 342 338 333 328 309 309 308 297 292 297 306 301 310 314 323 330 335 335 334 334 331 327 323 320 318 316 318 318 313 308 302 293 281 270 263
181 175 186 243 258 277 329 334 330 317 319 322 310 310 303 295 297 317 330 324 316 324 327 335 339 339 340 339 336 330 325 323 320 321 321 323 317 316 313 308 302 295 290
176 165 187 227 221 234 341 323 306 266 304 312 302 296 290 286 316 333 332 318 335 342 339 337 339 336 343 339 335 334 331 328 327 324 326 322 319 315 314 311 307 303 298
185 173 192 217 183 233 259 247 256 275 274 300 294 297 279 298 352 357 300 328 358 357 340 336 338 331 334 337 337 339 336 335 332 330 327 325 322 318 314 310 307 307 303
183 187 193 197 191 214 224 229 213 279 298 346 322 319 309 8 29 320 338 360 358 1 346 344 329 323 320 326 331 334 338 339 336 332 328 325 322 318 316 311 308 307 305
183 187 199 208 209 224 226 220 209 330 183 12 15 332 339 341 335 346 2 341 11 350 348 320 319 320 319 314 315 334 338 340 338 334 329 325 321 318 314 311 309 307 305
196 206 210 200 206 206 244 160 177 181 112 76 62 129 352 288 338 329 344 318 351 347 325 319 316 313 315 319 329 342 349 349 342 335 330 324 320 317 313 308 307 305 303
203 204 217 194 160 138 104 89 93 84 80 50 44 347 103 96 310 317 313 313 16 326 320 323 330 326 335 351 354 358 353 346 340 334 328 323 320 317 314 310 306 304 303
81 98 107 110 100 83 76 84 73 72 57 75 53 343 358 339 88 279 293 311 314 320 294 307 296 301 360 4 2 357 351 337 329 326 326 323 320 315 314 314 314 309 304
88 85 90 89 92 95 98 97 87 78 82 74 68 55 50 31 354 342 305 315 312 314 300 289 290 18 18 15 0 350 338 334 335 330 330 325 318 317 316 312 308 309 307
117 109 104 103 99 102 95 95 91 82 78 84 72 72 64 60 7 288 278 306 298 295 320 297 28 56 28 4 344 338 334 335 333 331 325 325 319 317 316 315 312 310 306
135 121 110 107 99 96 90 87 84 89 99 89 80 71 85 60 39 21 315 319 316 263 319 268 14 47 20 346 335 334 331 333 328 326 325 325 321 318 314 318 318 316 314
125 125 121 108 102 99 101 101 104 97 87 80 73 59 63 50 33 10 8 3 340 320 334 3 6 17 345 338 331 333 329 327 330 330 329 327 326 324 325 319 318 318 315
124 129 110 111 109 109 112 105 92 87 89 73 74 64 45 31 28 20 5 351 356 298 286 2 341 333 337 337 335 336 330 328 325 327 329 328 330 331 327 324 320 316 310
136 125 122 123 120 113 112 103 97 89 83 80 61 62 54 43 31 20 12 1 348 323 295 309 327 330 328 329 336 337 328 325 323 326 331 336 341 336 329 321 321 330 310
116 126 125 118 116 114 108 106 98 89 96 85 69 54 44 31 38 24 14 342 321 312 311 313 320 324 330 332 326 328 330 328 326 330 342 347 348 348 9 27 53 29 46
124 120 126 129 128 123 115 99 111 105 95 77 60 52 36 41 34 336 331 314 317 311 310 302 313 325 325 326 329 324 336 338 339 345 356 357 356 12 37 42 47 43 43
127 126 124 123 123 123 115 117 111 115 84 72 63 53 41 34 303 308 311 313 319 310 316 309 314 320 326 331 323 339 344 347 352 1 1 10 13 32 39 40 44 46 47
128 125 121 110 114 115 127 120 118 97 75 54 46 46 331 290 295 306 318 326 317 303 308 315 309 315 323 333 351 342 340 329 355 9 4 14 8 11 29 33 41 46 47
128 123 121 129 125 117 118 106 115 92 76 63 16 356 338 315 303 306 315 313 325 316 311 311 313 311 320 331 337 339 332 342 346 356 351 22 10 18 4 35 43 47 47
124 127 128 129 129 131 108 104 95 96 78 45 12 348 315 271 287 276 291 312 304 305 310 305 310 315 319 332 327 323 318 302 277 306 1 12 3 23 11 6 48 48 48
133 129 120 123 121 101 107 104 91 84 70 49 17 331 310 309 302 294 271 271 268 278 275 256 249 290 293 316 313 314 294 285 313 284 75 68 326 359 1 19 26 36 51
116 122 132 126 125 115 111 96 99 97 83 36 349 321 308 293 297 314 296 273 274 271 267 295 302 326 327 330 337 9 349 31 314 279 353 133 259 254 20 6 12 29 31
127 122 116 110 115 111 94 95 101 113 64 22 318 280 293 306 312 309 293 255 282 304 280 249 282 349 339 341 17 51 324 304 255 336 328 344 221 331 311 354 22 15 10